Tekamah, NE

6:55 PM CST on February 19, 2017 (GMT -0600)
Tekamah

Weather History for KTQE - May, 2013

Change the Weather History Date:

Friday, May 31, 2013

  Actual Average Record
Temperature  
Mean Temperature 68 °F -  
Max Temperature 81 °F 76 °F 91 °F (2002)
Min Temperature 55 °F 52 °F 39 °F (1972)
Cooling Degree Days 2    
Growing Degree Days 18 (Base 50)    
Moisture  
Dew Point 50 °F    
Average Humidity 56    
Maximum Humidity 87    
Minimum Humidity 28    
Precipitation  
Precipitation 0.00 in - - ()
Sea Level Pressure  
Sea Level Pressure 29.59 in    
Wind  
Wind Speed 14 mph (SW)    
Max Wind Speed 30 mph    
Max Gust Speed 40 mph    
Visibility 10 miles    
Events      
Averages and records for this station are not official NWS values.
T = Trace of Precipitation, MM = Missing Value Source: NWS Daily Summary

Daily Weather History Graph

Daily Weather History Graph

Search for Another Location

Airport or City:

Trip Planner

Search our weather history database for the weather conditions in past years. The results will help you decide how hot, cold, wet, or windy it might be!

Date:

Astronomy

May. 31, 2013 Rise Set
Actual Time 5:52 AM CDT 8:52 PM CDT
Civil Twilight 5:19 AM CDT 9:25 PM CDT
Nautical Twilight 4:37 AM CDT 10:08 PM CDT
Astronomical Twilight 3:47 AM CDT 10:58 PM CDT
Moon 1:23 AM CDT (5/31) 1:13 PM CDT (5/31)
Length of Visible Light 16h 06m
Length of Day
14h 59m
Waning Gibbous, 51% of the Moon is Illuminated
May 31
Waning Gibbous
May 31
Last Quarter
Jun 8
New
Jun 16
First Quarter
Jun 23
Full

Hourly Weather History & Observations

Time (CDT) Temp. Dew Point Humidity Pressure Visibility Wind Dir Wind Speed Gust Speed Precip Events Conditions
12:54 AM 61.0 °F 55.0 °F 81% 29.59 in 10.0 mi SE 12.7 mph - N/A   Clear
1:54 AM 60.1 °F 55.0 °F 83% 29.61 in 10.0 mi South 11.5 mph - N/A   Clear
2:54 AM 60.1 °F 54.0 °F 80% 29.60 in 10.0 mi South 9.2 mph - N/A   Clear
3:54 AM 57.9 °F 54.0 °F 87% 29.59 in 10.0 mi SSW 8.1 mph - N/A   Clear
4:54 AM 57.0 °F 53.1 °F 87% 29.59 in 10.0 mi SSW 6.9 mph - N/A   Clear
5:54 AM 55.9 °F 52.0 °F 87% 29.57 in 10.0 mi SSE 8.1 mph - N/A   Clear
6:54 AM 59.0 °F 53.1 °F 81% 29.58 in 10.0 mi SSE 8.1 mph - N/A   Clear
7:54 AM 63.0 °F 53.1 °F 70% 29.59 in 10.0 mi SW 9.2 mph - N/A   Clear
8:54 AM 66.9 °F 50.0 °F 54% 29.60 in 10.0 mi West 12.7 mph - N/A   Clear
9:54 AM 70.0 °F 48.9 °F 47% 29.61 in 10.0 mi SW 6.9 mph - N/A   Clear
10:54 AM 73.9 °F 51.1 °F 45% 29.61 in 10.0 mi WSW 20.7 mph 26.5 mph N/A   Clear
11:54 AM 73.9 °F 54.0 °F 50% 29.62 in 10.0 mi SSW 20.7 mph 25.3 mph N/A   Clear
12:54 PM 75.0 °F 51.1 °F 43% 29.61 in 10.0 mi SW 18.4 mph 34.5 mph N/A   Clear
1:54 PM 78.1 °F 51.1 °F 39% 29.60 in 10.0 mi SW 24.2 mph 38.0 mph N/A   Partly Cloudy
2:54 PM 80.1 °F 51.1 °F 36% 29.57 in 10.0 mi SW 23.0 mph 31.1 mph N/A   Scattered Clouds
3:54 PM 80.1 °F 50.0 °F 35% 29.57 in 10.0 mi SW 25.3 mph 33.4 mph N/A   Scattered Clouds
4:54 PM 80.1 °F 44.1 °F 28% 29.56 in 10.0 mi WSW 29.9 mph 40.3 mph N/A   Scattered Clouds
5:54 PM 80.1 °F 45.0 °F 29% 29.56 in 10.0 mi WSW 23.0 mph - N/A   Partly Cloudy
6:54 PM 79.0 °F 46.0 °F 31% 29.56 in 10.0 mi WSW 19.6 mph - N/A   Scattered Clouds
7:54 PM 75.0 °F 46.9 °F 37% 29.58 in 10.0 mi West 20.7 mph 27.6 mph N/A   Clear
8:54 PM 70.0 °F 46.0 °F 42% 29.60 in 10.0 mi West 16.1 mph - N/A   Clear
9:54 PM 66.9 °F 46.0 °F 47% 29.61 in 10.0 mi WSW 10.4 mph - N/A   Clear
10:54 PM 63.0 °F 46.0 °F 54% 29.64 in 10.0 mi WSW 12.7 mph - N/A   Clear
11:54 PM 61.0 °F 48.0 °F 62% 29.65 in 10.0 mi WSW 12.7 mph - N/A   Partly Cloudy